THORAD DELTA 1 DEB, 8307

Orbit data source: Space-Track

THORAD DELTA 1 DEB, 8307 is space debris in LEO originally from a launch on Fri, 15 Nov 1974 UTC launched from the Air Force Western Test Range (AFWTR). Debris objects in space refer to the collection of defunct objects orbiting the Earth. Examples of debris include non-operational satellites, rocket bodies, and fragments generated from explosions, collisions, or faulty payload assembly.

Loading next visibility...
Identifier
8307, 1974-089BQ
Orbit
LEO
Country
Flag of USUS
Related business
Manufacturer
Unknown
Mission
Spacecraft
Bus & Motor
Unknown
Mass
Unknown
Launch date (UTC)
1974-11-15 (51 years ago)
Launch vehicle
Unknown
Launch site
Air Force Western Test Range (AFWTR)
Object type
Payload
Rocket body
Debris
Shape & HBR
Unknown shape, 0.1 m
Radar Cross Section
Medium (>0.1 m² and <1 m²)

Expand to show TLE details & history
Last TLE update: 22 hours ago

TLE from 22 hours ago
0 THORAD DELTA 1 DEB
1 08307U 74089BQ  26071.67905697 -.00000035  00000-0 -58131-4 0  9993
2 08307 101.1606 137.7402 0454579 102.3031  46.0153 11.75307990201962
Epoch: 2026-03-12T16:17Z
TLE epoch observation values (Epoch: 2026-03-12T16:17:50.522Z)
Latitude
27.25169°
Longitude
-91.24204°
Altitude
1,547.484 km
Speed
7.203 km/s
True Right ascension
21h 34m 10s
True Declination
27° 07' 33"
Sunlit
Object was in daylight at epoch
Visualization orbit readout
Latitude
Unknown
Longitude
Unknown
Altitude
Unknown
Speed
Unknown
Apparent Right ascension
Unknown
Apparent Declination
Unknown
Sunlit
N/A
Visualization observer readout
Local Sidereal Time
18:38:51
Azimuth
Unknown
Elevation
Unknown
Doppler factor
Unknown
Orbital elements
Apogee altitude
2,162.299 km
Perigee altitude
1,419.6 km
Semi-major axis
8,169.086 km
Eccentricity
0.04546
Inclination
101.1606°
RAAN
137.7402°
Arg. of periapsis
102.3031°
True anomaly
49.91406°
Mean anomaly
46.0153°
Eccentric anomaly
47.94931°
Mean motion
2.93956 °/min
Orbital period
122.47 mins
BSTAR
-0.000058131
Loading maneuver chart data...
Computing Atmospheric mass density...

Documentation

Showing up to 5 results
|